Flag for Barbados Weather past 2 weeks in Bridgetown, Barbados

Now
81 °F

Scattered showers. Scattered clouds.


Feels Like: 86 °F
Forecast: 82 / 87 °F
Wind: 13 mph from Northeast

Location: Grantley Adams

Current Time: Sep 5, 2015 at 8:27:30 AM

Latest Report: Sep 5, 2015 at 8:00 AM


Visibility: N/A

Pressure: 29.98 "Hg

Humidity: 84%

Dew point: 75 °F

Location of BridgetownLocation

Historic Weather in Bridgetown — Graph

°F

Bridgetown temperature yesterday

Maximum temperature yesterday: 90 °F (at 1:00 PM)
Minimum temperature yesterday: 82 °F (at 12:00 AM)
Average temperature yesterday: 85 °F

Past Weeks' High & Low Weather Summary

 TemperatureHumidityPressure
High90 °F (Aug 25, 1:00 PM)100% (Aug 26, 5:00 AM)30.01 "Hg (Aug 26, 5:00 AM)
Low75 °F (Aug 24, 5:00 AM)59% (Aug 28, 12:00 PM)29.83 "Hg (Aug 23, 4:00 AM)
Average84 °F78%29.93 "Hg
* Reported Aug 21 7:00 AM — Sep 5 7:00 AM, Bridgetown, Weather by CustomWeather, © 2015

Note: Actual official high and low records may vary slightly from our data, if they occured in-between our weather recording intervals... More about our weather records

Advertising

Bridgetown weather history for previous 24 hours

 ConditionsComfort  
Time TempWeatherWind HumidityBarometerVisibility
7:00 AM
Sat, Sep 5
79 °FScattered clouds.22 mph89%29.98 "HgN/A
6:00 AM81 °FScattered clouds.12 mph84%29.95 "HgN/A
5:00 AM79 °FPassing clouds.10 mph79%29.95 "HgN/A
4:00 AM81 °FPassing clouds.24 mph89%29.95 "HgN/A
3:00 AM81 °FPassing clouds.14 mph84%29.92 "HgN/A
2:00 AM82 °FPassing clouds.14 mph79%29.92 "HgN/A
1:00 AM81 °FPassing clouds.13 mph84%29.95 "HgN/A
12:00 AM81 °FScattered showers. Passing clouds.13 mph79%29.95 "HgN/A
11:00 PM
Fri, Sep 4
82 °FPassing clouds.14 mph79%29.98 "HgN/A
10:00 PM82 °FPassing clouds.13 mph84%29.98 "HgN/A
9:00 PM82 °FPassing clouds.14 mph79%29.98 "HgN/A
8:00 PM82 °FPassing clouds.10 mph74%29.95 "HgN/A
7:00 PM82 °FPassing clouds.13 mph74%29.95 "HgN/A
6:00 PM84 °FPassing clouds.14 mph70%29.92 "HgN/A
5:00 PM86 °FPassing clouds.15 mph70%29.92 "HgN/A
4:00 PM88 °FScattered clouds.14 mph66%29.92 "HgN/A
3:00 PM88 °FPassing clouds.15 mph66%29.92 "HgN/A
2:00 PM88 °FScattered clouds.14 mph66%29.92 "HgN/A
1:00 PM90 °FPassing clouds.14 mph63%29.95 "HgN/A
12:00 PM88 °FScattered clouds.15 mph70%29.98 "HgN/A
11:00 AM88 °FScattered clouds.16 mph66%29.98 "HgN/A
10:00 AM88 °FScattered clouds.16 mph66%29.98 "HgN/A
9:00 AM88 °FPassing clouds.15 mph66%29.98 "HgN/A
8:00 AM86 °FScattered clouds.15 mph66%29.98 "HgN/A
Weather by CustomWeather, © 2015

See weather overviewHow to use our weather pages